AirNav   Everest Fuels
 
 820 users online  

KCPM Compton/Woodley Airport
Compton, California, USA

GOING TO COMPTON?


FAA INFORMATION EFFECTIVE 18 JUNE 2020

Location

FAA Identifier: CPM
Lat/Long: 33-53-23.7000N 118-14-37.7000W
33-53.395000N 118-14.628333W
33.8899167,-118.2438056
(estimated)
Elevation: 98.7 ft. / 30.1 m (surveyed)
Variation: 14E (1985)
From city: 2 miles SW of COMPTON, CA
Time zone: UTC -7 (UTC -8 during Standard Time)
Zip code: 90220

Airport Operations

Airport use: Open to the public
Control tower: no
ARTCC: LOS ANGELES CENTER
FSS: HAWTHORNE FLIGHT SERVICE STATION
NOTAMs facility: HHR (NOTAM-D service available)
Attendance: CONTINUOUS
Pattern altitude: 998.7 ft. MSL
Wind indicator: lighted
Segmented circle: yes
Lights: ACTVT REIL & PAPI RWY 25L; MIRL RWY 07R/25L; N AND S PARL TWYS - CTAF.
Beacon: white-green (lighted land airport)
Operates sunset to sunrise.

Airport Communications

CTAF/UNICOM: 123.05
WX AWOS-3PT: 127.150 (310-631-4958)
WX ASOS at HHR (5 nm NW): PHONE 310-973-8930
WX ASOS at LGB (6 nm SE): PHONE 562-424-0572
WX ASOS at LAX (9 nm W): PHONE 310-568-1486
WX ASOS at SMO (13 nm NW): PHONE 310-392-6453
WX ASOS at FUL (13 nm E): PHONE 714-870-1372
WX AWOS-3PT at EMT (16 nm NE): 118.75 ((626) 444-1107)
WX ASOS at BUR (20 nm N): PHONE 818-841-1384

Nearby radio navigation aids

VOR radial/distance  VOR name  Freq  Var
LAXr090/9.7LOS ANGELES VORTAC113.6015E
SLIr289/11.4SEAL BEACH VORTAC115.7015E
SMOr109/12.8SANTA MONICA VOR/DME110.8015E
VNYr133/23.5VAN NUYS VOR/DME113.1015E
POMr229/25.4POMONA VORTAC110.4015E
ELBr283/28.6EL TORO VOR/DME117.2014E
SXCr001/32.1SANTA CATALINA VORTAC111.4015E
PDZr252/35.6PARADISE VORTAC112.2015E
RALr250/(39.7)RIVERSIDE VOR112.4014E

Airport Services

Fuel available: 100LL
Parking: tiedowns
Airframe service: MAJOR
Powerplant service: MAJOR
Bottled oxygen: NONE
Bulk oxygen: NONE

Runway Information

Runway 7L/25R

Dimensions: 3323 x 60 ft. / 1013 x 18 m
Surface: asphalt/aggregate friction seal coat, in good condition
Weight bearing capacity: 
Single wheel: 14.5
Operational restrictions: CLSD NIGHTS INDEFLY; ONLY VFR OPNS DURG DAY.
RUNWAY 7L  RUNWAY 25R
Latitude: 33-53.410100N33-53.413187N
Longitude: 118-14.956927W118-14.300008W
Elevation: 98.7 ft.85.3 ft.
Traffic pattern: rightleft
Runway heading: 075 magnetic, 089 true255 magnetic, 269 true
Displaced threshold: 738 ft.667 ft.
Markings: basic, in good conditionbasic, in good condition
Runway end identifier lights: nono
Touchdown point: yes, no lightsyes, no lights
Obstructions: 19 ft. road, 200 ft. from runway
6 FT FENCE 70 FT FM THLD PERPENDICULAR TO CNTRLN +8 FT WALL 90 FT FM THLD PERPENDICULAR TO CNTRLN; +30 FT PLINE 200 FT FM RY END 125 FT R TO 125 FT L.
15 ft. road, 200 ft. from runway
+6 FT FENCE 60 FT TO 70 FT FROM THRESHOLD, +8 FT WALL 75 FT TO 85 FT FROM THRESHOLD, +15 FT STREET 125 FT R 105 FT TO 200 FT FROM THRESHOLD THROUGH 125 FT L 120 FT TO 200 FT FROM THR.

Runway 7R/25L

Dimensions: 3322 x 60 ft. / 1013 x 18 m
Surface: asphalt/aggregate friction seal coat, in good condition
Weight bearing capacity: 
Single wheel: 14.5
Runway edge lights: medium intensity
RUNWAY 7R  RUNWAY 25L
Latitude: 33-53.377077N33-53.380268N
Longitude: 118-14.956708W118-14.299880W
Elevation: 98.6 ft.86.3 ft.
Traffic pattern: rightleft
Runway heading: 075 magnetic, 089 true255 magnetic, 269 true
Displaced threshold: 737 ft.667 ft.
Markings: basic, in good conditionbasic, in good condition
Visual slope indicator: 2-light PAPI on right (4.00 degrees glide path)
Runway end identifier lights: noyes
Touchdown point: yes, no lightsyes, no lights
Obstructions: 19 ft. road, 200 ft. from runway
6 FT FENCE 70 FT FM THLD PERPENDICULAR TO CNTRLN +8 FT WALL 90 FT FM THLD PERPENDICULAR TO CNTRLN; +30 FT PLINE 125 FT FM RY END 125 FT R TO 125 FT L.
15 ft. road, 200 ft. from runway
+6 FT FENCE 45 FT TO 70 FT FROM THRESHOLD, +8 FT WALL 70 FT TO 90 FT FROM THRESHOLD, +15 FT STREET 125 FT R 120 FT TO 200 FT FROM THRESHOLD THROUGH 125 FT L 120 FT TO 200 FT FROM THR.

Airport Ownership and Management from official FAA records

Ownership: Publicly-owned
Owner: COUNTY OF LOS ANGELES
900 S. FREMONT AVE
ALHAMBRA, CA 92803
Phone (626) 300-4602
LA COUNTY CTC: RICHARD SMITH (626) 300-4600 X4615. AIRPORT MGT CONTRACTED TO - AMERICAN AIRPORTS CORP.
Manager: CARLOS DIAZ
901 W ALONDRA BLVD
COMPTON, CA 90220-3528
Phone 310-631-8140

Airport Operational Statistics

Aircraft based on the field: 53
Single engine airplanes: 49
Multi engine airplanes: 2
Helicopters: 1
Gliders airplanes: 1
    
Aircraft operations: avg 181/day *
55% local general aviation
45% transient general aviation
* for 12-month period ending 31 December 2018

Additional Remarks

PLANES PARKED 145 FT NORTH OF CENTERLINE 07L/25R AND 158 FT SOUTH OF CENTERLINE 07R/25L.
REQ ALL TRAFFIC REMAIN SOUTH OF AIRPORT. AVOID OVERFLIGHT OF SCHOOLS 2900 FT EAST.
ONLY SOUTH SIDE OF NORTH PARALLEL TAXIWAY LIGHTED; ONLY NORTH SIDE OF SOUTH PARALLEL TAXIWAY LIGHTED.
RY 25L/25R CALM WIND RUNWAY.
NO TOUCH AND GO LANDINGS
SKID EQUIPPED HELICOPTERS ARE NOT PERMITTED TO TOUCH DOWN ON RUNWAYS. HELICOPTER OPERATIONS RESTRICTED TO THE RUNWAYS AND SOUTH APRONS.
FOR CD CTC SOCAL APCH AT 800-448-3724.

Instrument Procedures

There are no published instrument procedures at KCPM.

Some nearby airports with instrument procedures:

KHHR - Jack Northrop Field/Hawthorne Municipal Airport (5 nm NW)
KLGB - Long Beach Airport (Daugherty Field) (6 nm SE)
KTOA - Zamperini Field Airport (7 nm SW)
KLAX - Los Angeles International Airport (9 nm W)
KSLI - Los Alamitos Army Airfield (11 nm SE)
KSMO - Santa Monica Municipal Airport (13 nm NW)
KFUL - Fullerton Municipal Airport (13 nm E)
KEMT - San Gabriel Valley Airport (16 nm NE)
KBUR - Bob Hope Airport (20 nm N)
 
Loc | Ops | Rwys | IFR | FBO | Links
Com | Nav | Svcs | Stats | Notes
Area around KCPM (Compton/Woodley Airport)
 
Road maps at: MapQuest Bing Google
 
Aerial photo
WARNING: Photo may not be current or correct
Aerial photo of KCPM (Compton/Woodley Airport)
Photo by focalflight.com
Photo taken 09-Feb-2017
looking northeast.

Do you have a better or more recent aerial photo of Compton/Woodley Airport that you would like to share? If so, please send us your photo.

 
Sectional chart

 
Airport distance calculator
Flying to Compton/Woodley Airport? Find the distance to fly.

From to KCPM

Sunrise and sunset
Times for 12-Jul-2020
 Local
(UTC-7)
 Zulu
(UTC)
Morning civil twilight05:2412:24
Sunrise05:5312:53
Sunset20:0403:04
Evening civil twilight20:3303:33

Current date and time
Zulu (UTC)  13-Jul-2020 03:18:14
Local (UTC-7)  12-Jul-2020 20:18:14
 
METAR
KHHR 
5nm W 
130253Z 25006KT 10SM CLR 22/16 A2983 RMK AO2 SLP100 T02220161 55000
KLGB 
6nm SE 
130253Z 31008KT 10SM CLR 24/17 A2982 RMK AO2 SLP096 T02390167 53004
KTOA 
7nm SW 
122247Z 28012KT 10SM SKC 27/19 A2983
KLAX 
7nm W 
130253Z 26007KT 9SM FEW004 FEW120 SCT280 21/17 A2983 RMK AO2 SLP098 T02060167 55003 $
KCQT 
10nm N 
130252Z AUTO 25005KT 10SM CLR 23/15 A2982 RMK AO2 SLP096 T02330150 53000
KSMO 
13nm NW 
130251Z AUTO 24007KT 10SM CLR 21/15 A2983 RMK AO2 SLP099 T02060150 55003
KSLI 
13nm SE 
122058Z 20009KT 10SM FEW180 30/16 A2986 RMK SLP115 WND DATA ESTMD ALSTG/SLP ESTMD 58010 LAST
KFUL 
13nm E 
130253Z VRB04KT 10SM CLR 28/13 A2981 RMK AO2 SLP093 T02830133 53002
KEMT 
15nm NE 
130145Z 23005KT 10SM CLR 31/10 A2980
KBUR 
20nm N 
130253Z 17008KT 10SM CLR 27/12 A2982 RMK AO2 SLP083 T02720122 55002 $
TAF
KLGB 
6nm SE 
121736Z 1218/1318 VRB03KT P6SM SKC FM121900 20006KT P6SM SKC FM130000 30010KT P6SM SKC FM130400 VRB05KT P6SM SKC FM131000 VRB03KT P6SM BKN008 FM131730 22006KT P6SM SCT010
KLAX 
7nm W 
122050Z 1221/1324 25012KT P6SM FEW110 FM130400 26006KT P6SM SKC FM130800 VRB03KT P6SM SKC FM131000 VRB03KT P6SM BKN008 FM131800 25006KT P6SM SCT010
KSMO 
13nm NW 
121736Z 1218/1318 21008KT P6SM SKC FM130400 VRB03KT P6SM SKC FM131000 VRB03KT P6SM BKN008 FM131730 21006KT P6SM SCT010
KSLI 
13nm SE 
122104Z 1221/1403 22009KT 9999 FEW180 QNH2982INS BECMG 1303/1304 VRB06KT 9999 SCT130 QNH2985INS TEMPO 1312/1316 BKN020 BECMG 1321/1322 21009KT 9999 SKC QNH2986INS TX34/1223Z TN24/1313Z
KBUR 
20nm N 
121736Z 1218/1318 VRB05KT P6SM SKC FM122000 17010KT P6SM SKC FM130200 13006KT P6SM SKC FM130900 VRB05KT P6SM SKC
NOTAMs
Click for the latest NOTAMs
NOTAMs are issued by the DoD/FAA and will open in a separate window not controlled by AirNav.

 

 
 

FBO, Fuel Providers, and Aircraft Ground Support

  
 Business Name 
 
 Contact 
 
 Services / Description 
 
Fuel Prices
 
Comments
  
 American Airports Corp.
310-631-8140
[web site]
[email]
Airport management, Aviation fuel, Aircraft parking (ramp or tiedown), Hangar leasing / sales, Passenger terminal and lounge, Rental cars, ...

More info about American Airports Corp.
100LL
FS $5.79 
SS $5.59 
 Updated 10-Jul-2020
 
   write
FS=Full service
SS=Self service
Update Fuel Prices
 

Would you like to see your business listed on this page?

 If your business provides an interesting product or service to pilots, flight crews, aircraft, or users of the Compton/Woodley Airport, you should consider listing it here.  To start the listing process, click on the button below
 
Add a business
 

Other Pages about Compton/Woodley Airport

Update a link
 
Copyright © AirNav, LLC. All rights reserved. Privacy Policy  Contact